I3LPO-3 Weather Reports


Display with metric or nautical units.
time (UTC)temp
F
wind
direction
speed
MPH
gust
MPH
rain 1hr
in
rain 24hr
in
rain mn
in
humidity
%
barometer
mb
20260502231524 57 0.0 0.0 0.00 0.00 0.00 38 1022.5
20260502225521 58 0.0 0.0 0.00 0.00 0.00 38 1022.6
20260502223517 58 0.0 0.0 0.00 0.00 0.00 38 1022.6
20260502221513 59 0.0 0.0 0.00 0.00 0.00 38 1022.6
20260502215510 59 0.0 0.0 0.00 0.00 0.00 38 1022.6
20260502213506 60 0.0 0.0 0.00 0.00 0.00 38 1022.7
20260502211503 60 0.0 0.0 0.00 0.00 0.00 38 1022.7
20260502205459 61 0.0 0.0 0.00 0.00 0.00 38 1022.7
20260502203456 62 0.0 0.0 0.00 0.00 0.00 38 1022.8
20260502201452 62 0.0 0.0 0.00 0.00 0.00 38 1022.7
20260502195448 63 0.0 0.0 0.00 0.00 0.00 38 1022.7
20260502193445 64 0.0 0.0 0.00 0.00 0.00 38 1022.6
20260502191441 64 0.0 0.0 0.00 0.00 0.00 38 1022.5
20260502185438 65 0.0 0.0 0.00 0.00 0.00 38 1022.1
20260502183434 66 0.0 0.0 0.00 0.00 0.00 38 1021.9
20260502181432 67 0.0 0.0 0.00 0.00 0.00 38 1021.6
20260502163658 70 0.0 0.0 0.00 0.00 0.00 38 1021.6
20260502161654 70 0.0 0.0 0.00 0.00 0.00 38 1021.7
20260502151643 70 0.0 0.0 0.00 0.00 0.00 38 1022.2
20260502123615 75 0.0 0.0 0.00 0.00 0.00 40 1023.5
20260502121611 78 0.0 0.0 0.00 0.00 0.00 40 1023.6
20260502115608 80 0.0 0.0 0.00 0.00 0.00 40 1023.7
20260502113604 84 0.0 0.0 0.00 0.00 0.00 40 1023.6
20260502111601 87 0.0 0.0 0.00 0.00 0.00 40 1023.8
20260502105557 89 0.0 0.0 0.00 0.00 0.00 39 1023.9
20260502103553 89 0.0 0.0 0.00 0.00 0.00 39 1024.1
20260502101550 87 0.0 0.0 0.00 0.00 0.00 38 1024.5
20260502071518 67 0.0 0.0 0.00 0.00 0.00 37 1027.1
20260502065514 64 0.0 0.0 0.00 0.00 0.00 37 1027.4
20260502063510 61 0.0 0.0 0.00 0.00 0.00 36 1027.8
20260502061507 57 0.0 0.0 0.00 0.00 0.00 36 1028.0
20260502055503 53 0.0 0.0 0.00 0.00 0.00 36 1028.2
20260502053500 49 0.0 0.0 0.00 0.00 0.00 36 1028.5
20260502051456 47 0.0 0.0 0.00 0.00 0.00 37 1028.7
20260502045453 47 0.0 0.0 0.00 0.00 0.00 37 1028.7
20260502043449 47 0.0 0.0 0.00 0.00 0.00 37 1028.7
20260502041445 47 0.0 0.0 0.00 0.00 0.00 37 1028.6
20260502035442 48 0.0 0.0 0.00 0.00 0.00 37 1028.7
20260502033438 48 0.0 0.0 0.00 0.00 0.00 37 1028.6
20260502031435 48 0.0 0.0 0.00 0.00 0.00 37 1028.5
20260502025431 48 0.0 0.0 0.00 0.00 0.00 37 1028.5
20260502023428 49 0.0 0.0 0.00 0.00 0.00 37 1028.5
20260502021424 49 0.0 0.0 0.00 0.00 0.00 37 1028.6
20260502015420 50 0.0 0.0 0.00 0.00 0.00 37 1028.6
20260502013417 50 0.0 0.0 0.00 0.00 0.00 37 1028.6
20260502011413 50 0.0 0.0 0.00 0.00 0.00 37 1028.7
20260502005410 50 0.0 0.0 0.00 0.00 0.00 37 1028.7
20260502003406 51 0.0 0.0 0.00 0.00 0.00 37 1028.8
20260502001403 51 0.0 0.0 0.00 0.00 0.00 37 1028.9
20260501235359 52 0.0 0.0 0.00 0.00 0.00 37 1028.9
20260501233355 52 0.0 0.0 0.00 0.00 0.00 37 1028.9